Wind_Speed
12 12 11 10 11 12 12 12 11 11 11 12 12 12 12 12 14 15 15 16 17 18 19 19 19 19 19 20 20 21 21 22 24 25 25 25 25 24 22 21 22 22
12 12 12 13 13 13 13 13 13 12 11 11 11 12 12 12 14 15 16 16 17 18 19 19 19 19 19 20 21 21 22 23 24 25 26 26 25 24 22 21 20 21
13 13 14 14 14 14 13 13 13 13 12 12 12 13 13 14 15 16 18 18 19 19 20 21 20 20 20 20 21 22 23 24 25 26 27 26 25 24 22 21 20 20
14 14 15 15 14 14 13 13 14 14 14 14 14 15 15 16 17 18 19 20 20 21 21 22 22 21 22 22 22 23 23 24 25 26 27 25 24 23 22 21 21 20
15 15 15 15 14 14 14 15 15 15 16 16 16 17 18 19 19 20 20 21 21 22 22 22 22 22 23 23 23 23 24 25 25 26 27 23 21 21 22 21 21 20
15 16 16 15 15 15 16 16 17 17 18 19 19 20 20 21 21 21 22 23 23 23 22 22 21 22 23 22 23 24 23 24 25 25 25 22 19 20 21 22 22 21
16 16 16 17 16 17 17 18 18 19 20 21 21 21 22 22 23 23 23 24 25 25 24 23 22 22 23 23 23 24 24 24 25 25 25 23 20 20 21 22 22 22
17 17 18 18 18 18 19 20 20 20 21 22 22 22 23 23 24 24 25 25 26 26 26 24 24 25 26 26 26 25 25 25 25 26 26 25 23 22 21 22 23 23
18 18 19 19 19 20 20 20 21 21 22 23 23 24 25 26 26 26 26 26 27 27 27 27 27 28 29 30 30 29 28 27 27 27 27 26 26 24 23 23 23 23
19 19 20 20 21 21 21 22 22 23 24 25 26 27 27 28 27 27 27 27 28 28 29 29 29 31 31 32 34 34 33 31 29 28 28 28 27 26 26 24 23 23
19 20 21 22 22 23 24 24 25 26 26 27 28 28 28 28 28 28 28 29 29 30 31 32 32 33 34 35 36 37 37 36 33 31 30 30 29 28 28 27 25 23
20 21 22 23 24 25 26 26 26 27 27 28 28 28 28 28 29 29 30 30 31 32 33 34 35 36 37 37 37 37 37 37 36 34 32 31 31 30 30 29 28 26
21 22 23 24 24 25 26 26 27 28 28 28 29 29 29 30 30 31 32 32 33 34 34 35 36 37 37 37 36 36 35 35 35 34 33 32 32 32 32 31 30 29
21 22 23 24 25 25 26 27 27 28 29 29 29 30 30 31 31 32 32 33 33 34 34 35 35 36 36 36 35 34 34 33 32 33 33 33 33 33 33 33 32 31
21 23 24 25 25 25 25 26 27 27 28 28 28 28 29 30 30 31 31 32 32 33 33 34 34 35 36 36 35 34 33 32 31 30 31 32 33 33 34 34 34 33
21 22 24 25 24 24 24 24 25 26 26 26 27 27 28 29 29 30 31 31 32 32 33 34 34 35 36 36 37 36 34 33 31 30 29 30 32 32 33 34 35 35
20 21 22 23 22 22 22 23 23 24 25 25 26 27 28 28 29 30 30 31 31 32 33 33 34 34 35 36 37 37 37 36 34 32 30 29 30 32 32 33 35 35
18 18 19 19 19 20 21 21 22 23 24 25 26 27 28 28 29 30 31 31 32 32 32 33 33 33 34 35 36 37 37 37 37 36 33 30 29 30 32 32 33 35
15 15 15 16 17 19 20 20 21 22 23 24 25 26 27 27 28 29 30 32 32 33 33 33 33 33 33 34 35 35 36 37 37 37 36 34 30 29 30 32 33 34
12 13 14 15 16 17 19 19 20 21 22 23 24 25 26 27 28 29 30 31 32 33 34 34 35 35 34 34 34 34 35 36 36 36 36 36 34 30 30 30 32 33
11 12 12 13 14 15 17 18 19 20 21 22 24 25 27 28 29 29 30 31 32 33 34 35 35 36 36 35 35 34 34 34 35 36 35 35 35 33 31 30 31 32
9 10 11 12 14 15 16 17 19 21 22 24 25 26 28 29 30 31 31 32 33 34 35 35 36 36 37 36 36 35 34 33 33 34 34 34 34 33 31 31 31 31
8 9 11 13 15 16 17 18 20 21 23 24 26 27 28 29 30 32 33 34 34 35 35 36 36 37 37 37 37 36 35 33 32 32 33 33 33 32 31 30 31 32
9 11 13 15 16 17 18 19 21 22 23 25 26 28 29 30 32 33 34 34 35 36 36 37 37 37 37 37 37 37 37 35 32 30 31 32 31 31 30 30 30 31
12 13 15 16 17 18 20 21 22 23 25 26 27 29 30 31 32 33 34 35 35 36 37 37 37 37 37 37 37 37 37 36 34 30 28 29 30 29 28 28 29 30
14 15 16 18 19 20 22 23 24 25 26 26 27 29 30 31 32 33 34 34 35 35 36 37 37 37 36 36 36 36 36 36 35 33 29 27 28 28 27 27 27 28
Wind_Direction
301 299 296 292 291 292 292 290 286 283 285 287 291 295 297 300 303 307 310 310 310 309 308 307 306 306 307 306 305 303 301 300 299 297 295 294 295 297 294 286 282 281
296 294 292 291 292 295 294 294 292 292 294 296 297 300 301 304 307 309 311 312 312 311 309 309 308 308 308 308 308 308 307 307 307 302 298 294 293 295 295 287 278 278
295 293 292 293 295 297 297 296 297 298 299 300 300 301 302 304 306 307 310 311 311 309 307 306 307 308 308 308 309 310 312 313 314 312 305 295 290 291 294 292 283 276
297 296 295 297 298 298 298 297 298 299 301 301 300 300 301 302 303 304 306 307 307 306 304 303 305 306 306 306 308 310 312 313 314 316 314 301 288 288 293 293 288 281
298 298 298 298 298 298 298 298 299 299 300 299 299 299 299 300 300 301 302 302 302 302 302 302 304 304 303 304 307 309 311 311 311 315 318 309 289 286 294 295 291 287
297 297 297 298 297 296 296 296 297 297 297 297 297 297 297 297 298 298 299 299 300 300 300 301 303 302 301 303 306 308 309 309 308 309 315 312 295 287 292 294 293 289
295 295 295 295 294 293 293 293 294 294 295 295 295 296 296 296 297 296 297 298 298 299 300 301 301 299 299 300 302 305 306 307 306 305 308 308 300 291 289 290 290 289
292 292 292 293 292 291 291 292 293 293 294 295 296 298 298 298 298 297 296 296 296 298 299 299 299 297 297 298 299 301 302 303 304 302 301 301 299 294 289 287 286 286
292 292 292 292 291 292 292 292 294 295 297 299 300 301 301 300 299 296 295 295 295 296 297 298 298 297 297 298 298 299 299 299 299 298 297 296 294 291 288 285 284 283
295 295 295 295 295 296 296 297 299 300 302 302 302 302 302 300 298 295 294 293 293 294 295 296 296 295 296 296 297 297 297 296 294 293 293 292 290 287 284 282 281 280
296 296 297 298 299 300 301 302 303 303 303 303 303 303 302 300 297 295 294 293 293 293 294 294 294 294 294 295 295 295 295 294 293 290 288 287 287 285 281 278 278 278
296 297 299 300 301 302 302 302 302 302 302 302 302 302 301 300 299 297 297 295 295 294 294 294 295 295 295 295 295 294 294 293 292 289 286 283 283 283 280 276 274 274
297 299 300 300 301 301 301 302 302 302 303 303 303 303 303 302 301 301 300 299 299 298 297 297 297 297 297 296 296 295 294 293 291 289 286 282 279 279 279 277 273 270
299 301 301 301 302 303 304 304 304 305 305 305 306 306 306 306 305 305 304 304 303 303 301 301 300 299 298 297 296 295 294 293 291 289 287 282 278 276 275 275 273 270
302 303 303 303 305 306 306 307 307 308 309 309 310 310 309 309 309 308 308 307 307 306 305 304 303 302 301 299 297 296 295 294 294 292 288 283 279 275 273 272 272 269
303 303 303 304 305 307 308 309 310 312 313 313 313 314 313 313 313 312 311 311 310 309 308 307 306 305 304 303 302 300 298 297 297 296 292 287 281 276 272 270 269 269
304 303 304 305 307 310 312 314 316 317 318 319 318 318 318 317 317 317 316 315 315 314 313 311 310 309 307 306 305 304 302 299 298 298 296 291 286 281 275 269 267 267
305 306 308 310 312 316 318 320 322 322 323 323 322 322 322 321 321 320 319 319 318 317 316 315 313 312 310 309 306 305 304 302 300 298 297 295 290 285 280 274 268 265
310 312 316 319 320 323 325 327 328 328 327 327 327 327 327 326 325 324 323 322 321 320 319 318 316 315 313 312 309 307 306 304 303 300 299 298 294 288 283 278 272 267
319 321 323 326 329 331 334 335 335 335 334 334 334 334 334 333 332 331 329 328 326 324 323 322 320 319 317 315 313 310 308 306 304 303 301 299 298 293 286 281 275 269
328 329 331 336 342 345 346 345 344 345 345 344 344 344 343 342 340 338 337 335 333 331 329 327 324 322 320 318 316 313 311 309 306 304 303 301 299 296 291 285 280 274
343 342 346 353 359 0 359 356 356 356 355 354 353 352 350 348 346 344 343 341 339 336 333 331 328 326 323 321 318 316 314 311 308 305 303 302 300 298 293 288 284 279
10 7 9 12 13 12 10 9 6 4 2 0 359 357 355 353 351 350 348 346 343 340 338 335 332 330 327 324 321 319 316 314 311 307 304 303 301 299 296 290 285 282
35 30 27 26 24 21 19 18 14 11 8 6 3 1 359 358 356 354 351 349 346 344 342 340 337 334 332 328 325 322 319 317 315 310 305 303 302 300 297 292 286 282
48 42 38 36 32 29 26 23 19 17 14 10 7 4 2 1 359 357 354 351 349 347 344 342 340 338 336 333 330 326 323 320 317 314 308 304 302 300 295 292 287 284
53 47 43 41 36 33 30 27 23 20 17 13 10 7 5 3 1 358 356 354 351 349 346 342 340 340 339 337 335 331 327 324 320 317 312 306 304 302 297 292 288 285
Height
3147 3146 3146 3145 3145 3144 3144 3143 3142 3142 3141 3141 3140 3139 3138 3137 3135 3134 3133 3132 3131 3129 3128 3126 3124 3122 3120 3118 3117 3115 3114 3112 3111 3109 3108 3107 3106 3104 3102 3102 3101 3100
3145 3144 3144 3143 3143 3143 3142 3141 3141 3140 3139 3139 3138 3137 3136 3135 3134 3132 3131 3130 3129 3128 3126 3124 3122 3121 3119 3117 3115 3113 3111 3110 3108 3106 3105 3104 3103 3102 3100 3099 3098 3098
3143 3143 3143 3142 3141 3141 3140 3139 3139 3138 3138 3137 3136 3135 3134 3133 3132 3131 3130 3129 3127 3126 3124 3122 3121 3119 3117 3115 3113 3112 3110 3108 3106 3104 3102 3101 3099 3098 3098 3097 3095 3095
3142 3141 3141 3140 3140 3139 3138 3138 3137 3136 3136 3135 3134 3133 3132 3131 3130 3129 3128 3126 3125 3123 3122 3120 3119 3117 3115 3113 3112 3110 3108 3106 3104 3101 3099 3097 3096 3095 3095 3095 3094 3093
3140 3140 3139 3139 3138 3137 3137 3136 3135 3134 3134 3133 3132 3131 3130 3129 3128 3127 3126 3124 3122 3121 3119 3118 3117 3115 3113 3111 3109 3108 3106 3104 3102 3099 3096 3095 3094 3093 3092 3092 3091 3090
3138 3138 3138 3137 3137 3136 3135 3134 3133 3133 3132 3131 3130 3129 3128 3127 3126 3124 3123 3121 3120 3118 3117 3116 3115 3113 3111 3109 3107 3105 3104 3102 3100 3097 3095 3093 3091 3091 3090 3089 3089 3088
3137 3136 3136 3136 3135 3134 3133 3132 3131 3131 3129 3128 3128 3127 3125 3124 3123 3121 3120 3118 3116 3115 3114 3113 3112 3110 3108 3106 3105 3103 3101 3099 3097 3095 3093 3091 3090 3089 3088 3086 3085 3085
3135 3135 3134 3134 3133 3132 3131 3130 3129 3128 3127 3126 3125 3124 3123 3121 3120 3118 3117 3115 3113 3112 3110 3110 3108 3106 3104 3103 3102 3100 3098 3097 3095 3093 3091 3089 3087 3086 3085 3084 3083 3082
3133 3133 3132 3131 3130 3130 3129 3128 3127 3125 3124 3123 3122 3121 3119 3118 3117 3115 3114 3112 3110 3108 3107 3106 3105 3102 3100 3099 3097 3096 3095 3094 3092 3090 3088 3086 3085 3083 3082 3081 3080 3079
3131 3130 3129 3129 3128 3127 3126 3125 3124 3123 3121 3120 3119 3117 3116 3115 3113 3112 3110 3109 3107 3105 3103 3102 3101 3099 3097 3095 3093 3091 3090 3089 3088 3086 3085 3083 3081 3080 3079 3078 3077 3076
3128 3128 3127 3126 3125 3124 3123 3122 3121 3120 3118 3117 3115 3114 3113 3111 3110 3108 3107 3105 3103 3101 3100 3098 3096 3094 3093 3091 3089 3087 3085 3084 3083 3082 3081 3079 3077 3076 3075 3074 3073 3072
3126 3125 3124 3123 3122 3121 3120 3119 3118 3116 3115 3113 3112 3110 3109 3107 3106 3104 3102 3101 3099 3097 3095 3093 3091 3090 3088 3086 3085 3083 3081 3079 3078 3077 3076 3074 3073 3072 3070 3069 3069 3068
3124 3123 3122 3121 3120 3118 3117 3116 3114 3113 3111 3110 3108 3106 3105 3103 3101 3100 3098 3096 3094 3092 3090 3088 3087 3085 3083 3081 3079 3078 3076 3074 3072 3071 3070 3069 3068 3067 3066 3065 3064 3064
3122 3120 3119 3118 3117 3115 3114 3112 3110 3109 3107 3106 3104 3102 3101 3099 3097 3095 3093 3091 3089 3087 3086 3084 3082 3080 3078 3076 3075 3073 3072 3070 3068 3066 3065 3064 3063 3062 3061 3060 3059 3059
3119 3117 3116 3115 3114 3112 3111 3109 3107 3106 3104 3102 3101 3099 3097 3095 3093 3091 3089 3087 3085 3083 3081 3079 3077 3075 3073 3071 3069 3068 3067 3066 3064 3062 3060 3058 3058 3057 3056 3055 3054 3054
3117 3115 3114 3112 3111 3109 3108 3106 3105 3103 3101 3099 3098 3096 3094 3092 3090 3088 3086 3084 3082 3080 3077 3075 3073 3071 3068 3066 3064 3063 3062 3061 3059 3057 3055 3053 3052 3051 3051 3049 3048 3048
3114 3113 3111 3110 3108 3107 3106 3104 3102 3101 3099 3097 3095 3093 3091 3089 3087 3085 3083 3080 3078 3076 3074 3071 3069 3067 3064 3062 3060 3058 3056 3055 3054 3052 3051 3049 3047 3046 3045 3044 3043 3042
3112 3111 3109 3108 3106 3105 3104 3102 3100 3098 3096 3094 3092 3090 3088 3086 3084 3081 3079 3077 3075 3073 3070 3068 3066 3064 3061 3059 3056 3054 3052 3050 3048 3047 3046 3045 3043 3041 3040 3039 3038 3037
3110 3109 3108 3106 3105 3103 3102 3100 3098 3096 3094 3092 3090 3088 3085 3083 3081 3079 3076 3074 3071 3069 3067 3065 3063 3060 3058 3055 3053 3050 3048 3046 3044 3042 3040 3039 3038 3037 3035 3033 3032 3032
3109 3108 3106 3105 3104 3102 3100 3098 3096 3094 3092 3090 3088 3086 3083 3081 3079 3076 3074 3071 3069 3066 3064 3061 3059 3057 3055 3052 3050 3047 3044 3042 3040 3037 3035 3034 3032 3032 3030 3029 3027 3026
3107 3106 3105 3104 3103 3101 3099 3097 3095 3093 3091 3088 3086 3084 3081 3079 3076 3074 3071 3069 3066 3063 3061 3058 3055 3053 3051 3049 3046 3044 3041 3039 3036 3033 3031 3029 3027 3026 3025 3024 3022 3021
3107 3105 3104 3103 3102 3100 3098 3096 3094 3091 3089 3087 3085 3082 3079 3077 3074 3072 3069 3066 3064 3061 3058 3055 3052 3050 3047 3045 3042 3040 3038 3036 3033 3030 3028 3025 3023 3021 3020 3019 3017 3016
3106 3105 3103 3102 3101 3099 3097 3095 3093 3091 3088 3086 3084 3081 3079 3076 3073 3070 3067 3064 3062 3059 3056 3053 3050 3047 3044 3041 3038 3036 3034 3032 3030 3027 3024 3022 3019 3017 3015 3014 3012 3010
3105 3104 3103 3102 3100 3099 3097 3095 3093 3090 3088 3085 3083 3080 3078 3075 3072 3069 3066 3063 3060 3056 3053 3050 3047 3044 3041 3038 3035 3032 3030 3027 3026 3024 3021 3018 3016 3013 3011 3009 3007 3005
3105 3104 3103 3102 3100 3098 3096 3094 3092 3090 3087 3085 3082 3079 3077 3074 3071 3068 3065 3062 3058 3055 3052 3049 3045 3042 3039 3036 3032 3029 3026 3024 3021 3020 3018 3015 3012 3010 3008 3005 3003 3001
3105 3104 3103 3101 3100 3098 3096 3094 3092 3089 3087 3085 3082 3079 3076 3073 3071 3068 3065 3061 3058 3055 3051 3047 3044 3041 3038 3034 3031 3027 3024 3021 3018 3015 3014 3011 3008 3006 3004 3002 3000 2997